H1 CPF 2 NER 2023 4 18 9 108 01 glonass146 H2 2216101 9146 54377 2023 4 18 0 0 0 2023 4 21 23 45 0 900 1 1 0 0 0 1 H9 10 0 60052 0.00000 0 21723521.888 12632283.242 4487200.034 10 0 60052 900.00000 0 21102132.120 12195751.315 7588719.558 10 0 60052 1800.00000 0 20099487.493 11681715.958 10543141.077 10 0 60052 2700.00000 0 18724315.566 11147485.021 13293197.679 10 0 60052 3600.00000 0 16998379.661 10648660.094 15785575.722 10 0 60052 4500.00000 0 14955763.789 10236630.633 17971942.633 10 0 60052 5400.00000 0 12641656.292 9956258.483 19809879.185 10 0 60052 6300.00000 0 10110681.746 9843850.106 21263698.765 10 0 60052 7200.00000 0 7424849.290 9925501.792 22305138.258 10 0 60052 8100.00000 0 4651201.305 10215887.655 22913907.572 10 0 60052 9000.00000 0 1859258.708 10717541.849 23078087.349 10 0 60052 9900.00000 0 -881632.414 11420665.989 22794367.054 10 0 60052 10800.00000 0 -3504943.923 12303470.951 22068118.479 10 0 60052 11700.00000 0 -5949489.809 13333040.043 20913302.527 10 0 60052 12600.00000 0 -8161727.325 14466678.710 19352210.202 10 0 60052 13500.00000 0 -10097739.946 15653695.429 17415041.684 10 0 60052 14400.00000 0 -11724819.880 16837540.163 15139330.528 10 0 60052 15300.00000 0 -13022584.236 17958211.249 12569223.043 10 0 60052 16200.00000 0 -13983578.272 18954829.859 9754625.997 10 0 60052 17100.00000 0 -14613340.518 19768273.508 6750238.543 10 0 60052 18000.00000 0 -14929927.231 20343757.079 3614487.061 10 0 60052 18900.00000 0 -14962916.583 20633251.486 408383.780 10 0 60052 19800.00000 0 -14751935.166 20597636.705 -2805667.993 10 0 60052 20700.00000 0 -14344769.937 20208496.826 -5965097.837 10 0 60052 21600.00000 0 -13795146.459 19449479.968 -9008396.431 10 0 60052 22500.00000 0 -13160268.752 18317164.361 -11876322.898 10 0 60052 23400.00000 0 -12498226.116 16821393.026 -14513066.586 10 0 60052 24300.00000 0 -11865377.948 14985062.171 -16867339.740 10 0 60052 25200.00000 0 -11313828.263 12843371.679 -18893379.162 10 0 60052 26100.00000 0 -10889097.501 10442568.941 -20551837.006 10 0 60052 27000.00000 0 -10628090.466 7838238.607 -21810543.468 10 0 60052 27900.00000 0 -10557446.329 5093209.802 -22645126.927 10 0 60052 28800.00000 0 -10692340.084 2275168.242 -23039480.086 10 0 60052 29700.00000 0 -11035785.570 -545927.305 -22986063.890 10 0 60052 30600.00000 0 -11578468.766 -3300516.948 -22486044.178 10 0 60052 31500.00000 0 -12299117.747 -5922089.379 -21549259.247 10 0 60052 32400.00000 0 -13165393.058 -8349700.037 -20194019.699 10 0 60052 33300.00000 0 -14135260.549 -10530254.176 -18446745.022 10 0 60052 34200.00000 0 -15158788.512 -12420461.259 -16341444.353 10 0 60052 35100.00000 0 -16180293.334 -13988380.937 -13919051.723 10 0 60052 36000.00000 0 -17140743.346 -15214497.941 -11226628.754 10 0 60052 36900.00000 0 -17980319.830 -16092282.839 -8316450.272 10 0 60052 37800.00000 0 -18641027.570 -16628216.989 -5244990.486 10 0 60052 38700.00000 0 -19069245.334 -16841282.337 -2071829.255 10 0 60052 39600.00000 0 -19218109.153 -16761938.908 1141500.430 10 0 60052 40500.00000 0 -19049628.270 -16430634.164 4332701.578 10 0 60052 41400.00000 0 -18536444.820 -15895907.797 7439916.075 10 0 60052 42300.00000 0 -17663163.133 -15212172.284 10402918.200 10 0 60052 43200.00000 0 -16427192.556 -14437262.913 13164275.970 10 0 60052 44100.00000 0 -14839067.846 -13629860.420 15670458.261 10 0 60052 45000.00000 0 -12922232.925 -12846894.508 17872866.693 10 0 60052 45900.00000 0 -10712295.980 -12141037.175 19728772.903 10 0 60052 46800.00000 0 -8255785.673 -11558390.863 21202143.630 10 0 60052 47700.00000 0 -5608458.854 -11136468.316 22264338.150 10 0 60052 48600.00000 0 -2833228.586 -10902548.829 22894664.957 10 0 60052 49500.00000 0 2203.043 -10872479.983 23080787.127 10 0 60052 50400.00000 0 2827910.584 -11049975.528 22818968.412 10 0 60052 51300.00000 0 5574404.320 -11426439.493 22114154.960 10 0 60052 52200.00000 0 8175273.650 -11981324.818 20979890.389 10 0 60052 53100.00000 0 10569705.914 -12683012.444 19438064.929 10 0 60052 54000.00000 0 12704776.623 -13490175.074 17518502.426 10 0 60052 54900.00000 0 14537416.137 -14353569.207 15258391.995 10 0 60052 55800.00000 0 16035970.891 -15218180.869 12701574.307 10 0 60052 56700.00000 0 17181293.933 -16025635.044 9897695.419 10 0 60052 57600.00000 0 17967319.059 -16716767.286 6901243.994 10 0 60052 58500.00000 0 18401094.393 -17234248.505 3770490.401 10 0 60052 59400.00000 0 18502274.183 -17525151.291 566348.540 10 0 60052 60300.00000 0 18302090.558 -17543348.080 -2648816.913 10 0 60052 61200.00000 0 17841849.253 -17251638.435 -5812413.693 10 0 60052 62100.00000 0 17171013.729 -16623513.996 -8862850.596 10 0 60052 63000.00000 0 16344959.723 -15644485.069 -11740746.518 10 0 60052 63900.00000 0 15422496.401 -14312911.550 -14390095.117 10 0 60052 64800.00000 0 14463260.097 -12640302.066 -16759361.489 10 0 60052 65700.00000 0 13525091.874 -10651067.906 -18802488.829 10 0 60052 66600.00000 0 12661510.532 -8381741.561 -20479795.148 10 0 60052 67500.00000 0 11919388.231 -5879692.316 -21758742.626 10 0 60052 68400.00000 0 11336926.885 -3201392.475 -22614565.045 10 0 60052 69300.00000 0 10942020.396 -410306.556 -23030741.694 10 0 60052 70200.00000 0 10751071.091 2425508.637 -22999309.361 10 0 60052 71100.00000 0 10768309.355 5235993.392 -22521007.221 10 0 60052 72000.00000 0 10985644.110 7951756.594 -21605252.652 10 0 60052 72900.00000 0 11383049.385 10506718.954 -20269949.174 10 0 60052 73800.00000 0 11929469.746 12840619.003 -18541130.813 10 0 60052 74700.00000 0 12584205.675 14901278.756 -16452450.223 10 0 60052 75600.00000 0 13298719.933 16646536.154 -14044520.696 10 0 60052 76500.00000 0 14018788.432 18045765.295 -11364124.937 10 0 60052 77400.00000 0 14686904.790 19080922.647 -8463305.950 10 0 60052 78300.00000 0 15244837.200 19747077.182 -5398357.577 10 0 60052 79200.00000 0 15636229.914 20052403.849 -2228734.189 10 0 60052 80100.00000 0 15809139.806 20017642.060 984099.484 10 0 60052 81000.00000 0 15718401.247 19675043.168 4177856.178 10 0 60052 81900.00000 0 15327719.716 19066852.096 7290628.798 10 0 60052 82800.00000 0 14611405.901 18243387.568 10262084.853 10 0 60052 83700.00000 0 13555677.097 17260802.036 13034629.824 10 0 60052 84600.00000 0 12159470.685 16178615.506 15554517.355 10 0 60052 85500.00000 0 10434734.801 15057126.761 17772885.218 10 0 60053 0.00000 0 8406183.115 13954810.463 19646697.420 10 0 60053 900.00000 0 6110521.488 12925808.345 21139575.749 10 0 60053 1800.00000 0 3595179.985 12017620.770 22222502.719 10 0 60053 2700.00000 0 916597.719 11269093.064 22874386.103 10 0 60053 3600.00000 0 -1861867.310 10708782.255 23082471.719 10 0 60053 4500.00000 0 -4672319.309 10353772.039 22842597.497 10 0 60053 5400.00000 0 -7444899.337 10208985.912 22159283.369 10 0 60053 6300.00000 0 -10110448.053 10267027.712 21045654.580 10 0 60053 7200.00000 0 -12603147.063 10508556.879 19523199.007 10 0 60053 8100.00000 0 -14863029.899 10903183.414 17621362.075 10 0 60053 9000.00000 0 -16838258.592 11410845.683 15376985.939 10 0 60053 9900.00000 0 -18487071.032 11983613.665 12833602.736 10 0 60053 10800.00000 0 -19779317.741 12567842.102 10040594.669 10 0 60053 11700.00000 0 -20697523.500 13106582.736 7052236.597 10 0 60053 12600.00000 0 -21237429.059 13542153.433 3926639.525 10 0 60053 13500.00000 0 -21407990.041 13818754.859 724615.693 10 0 60053 14400.00000 0 -21230833.133 13885022.912 -2491512.111 10 0 60053 15300.00000 0 -20739192.791 13696407.550 -5659132.885 10 0 60053 16200.00000 0 -19976373.944 13217275.823 -8716576.489 10 0 60053 17100.00000 0 -18993806.460 12422648.604 -11604324.320 10 0 60053 18000.00000 0 -17848774.588 11299496.146 -14266176.797 10 0 60053 18900.00000 0 -16601918.405 9847536.501 -16650353.976 10 0 60053 19800.00000 0 -15314613.777 8079502.081 -18710507.157 10 0 60053 20700.00000 0 -14046342.275 6020862.361 -20406621.466 10 0 60053 21600.00000 0 -12852162.478 3709013.818 -21705791.851 10 0 60053 22500.00000 0 -11780389.344 1191970.650 -22582857.785 10 0 60053 23400.00000 0 -10870579.135 -1473389.183 -23020884.941 10 0 60053 24300.00000 0 -10151903.983 -4223449.606 -23011485.275 10 0 60053 25200.00000 0 -9641983.490 -6990265.428 -22554970.181 10 0 60053 26100.00000 0 -9346221.258 -9704154.729 -21660334.572 10 0 60053 27000.00000 0 -9257672.857 -12296367.326 -20345072.953 10 0 60053 27900.00000 0 -9357449.462 -14701719.071 -18634831.641 10 0 60053 28800.00000 0 -9615638.879 -16861083.278 -16562904.287 10 0 60053 29700.00000 0 -9992704.124 -18723636.740 -14169580.750 10 0 60053 30600.00000 0 -10441299.794 -20248768.022 -11501362.028 10 0 60053 31500.00000 0 -10908429.093 -21407569.814 -8610056.496 10 0 60053 32400.00000 0 -11337850.149 -22183854.452 -5551774.905 10 0 60053 33300.00000 0 -11672629.997 -22574651.554 -2385843.499 10 0 60053 34200.00000 0 -11857738.380 -22590168.213 826343.737 10 0 60053 35100.00000 0 -11842571.989 -22253214.612 4022511.628 10 0 60053 36000.00000 0 -11583302.690 -21598120.065 7140706.323 10 0 60053 36900.00000 0 -11044950.685 -20669185.665 10120490.661 10 0 60053 37800.00000 0 -10203095.117 -19518738.930 12904109.552 10 0 60053 38700.00000 0 -9045149.683 -18204872.186 15437603.229 10 0 60053 39600.00000 0 -7571149.037 -16788959.482 17671847.239 10 0 60053 40500.00000 0 -5794011.972 -15333055.809 19563499.656 10 0 60053 41400.00000 0 -3739269.083 -13897287.078 21075837.761 10 0 60053 42300.00000 0 -1444264.726 -12537339.604 22179468.500 10 0 60053 43200.00000 0 1043135.227 -11302153.561 22852899.429 10 0 60053 44100.00000 0 3666277.939 -10231916.383 23082959.297 10 0 60053 45000.00000 0 6361830.209 -9356439.695 22865060.092 10 0 60053 45900.00000 0 9062171.440 -8693987.500 22203295.111 10 0 60053 46800.00000 0 11697975.152 -8250604.691 21110370.550 10 0 60053 47700.00000 0 14200873.097 -8019974.285 19607370.977 10 0 60053 48600.00000 0 16506092.131 -7983809.709 17723362.177 10 0 60053 49500.00000 0 18554954.684 -8112766.151 15494837.857 10 0 60053 50400.00000 0 20297138.720 -8367833.014 12965019.827 10 0 60053 51300.00000 0 21692602.701 -8702149.134 10183024.324 10 0 60053 52200.00000 0 22713094.668 -9063164.162 7202909.972 10 0 60053 53100.00000 0 23343181.688 -9395054.528 4082625.665 10 0 60053 54000.00000 0 23580756.068 -9641291.163 882878.979 10 0 60053 54900.00000 0 23436996.714 -9747249.274 -2334052.352 10 0 60053 55800.00000 0 22935787.275 -9662748.394 -5505541.831 10 0 60053 56700.00000 0 22112615.861 -9344413.616 -8569843.556 10 0 60053 57600.00000 0 21013003.290 -8757756.504 -11467304.433 10 0 60053 58500.00000 0 19690527.015 -7878886.061 -14141534.405 10 0 60053 59400.00000 0 18204525.037 -6695776.057 -16540510.927 10 0 60053 60300.00000 0 16617577.585 -5209034.008 -18617595.516 10 0 60053 61200.00000 0 14992873.564 -3432138.441 -20332442.151 10 0 60053 62100.00000 0 13391573.258 -1391133.736 -21651779.916 10 0 60053 63000.00000 0 11870278.469 876205.189 -22550054.960 10 0 60053 63900.00000 0 10478716.295 3321703.730 -23009919.923 10 0 60053 64800.00000 0 9257733.233 5888558.608 -23022562.108 10 0 60053 65700.00000 0 8237682.792 8513475.460 -22587864.891 10 0 60053 66600.00000 0 7437273.007 11129084.136 -21714400.077 10 0 60053 67500.00000 0 6862920.641 13666531.585 -20419252.132 10 0 60053 68400.00000 0 6508637.534 16058144.946 -18727678.246 10 0 60053 69300.00000 0 6356452.253 18240054.663 -16672611.308 10 0 60053 70200.00000 0 6377347.767 20154669.276 -14294015.644 10 0 60053 71100.00000 0 6532674.414 21752899.782 -11638108.131 10 0 60053 72000.00000 0 6775977.567 22996041.834 -8756459.826 10 0 60053 72900.00000 0 7055162.202 23857238.406 -5704995.450 10 0 60053 73800.00000 0 7314902.541 24322462.928 -2542910.014 10 0 60053 74700.00000 0 7499194.792 24390982.862 668476.460 10 0 60053 75600.00000 0 7553945.072 24075285.323 3866904.106 10 0 60053 76500.00000 0 7429483.268 23400468.705 6990375.459 10 0 60053 77400.00000 0 7082896.688 22403126.433 9978351.663 10 0 60053 78300.00000 0 6480085.023 21129770.045 12772919.816 10 0 60053 79200.00000 0 5597449.728 19634857.791 15319909.211 10 0 60053 80100.00000 0 4423146.277 17978511.255 17569935.361 10 0 60053 81000.00000 0 2957845.847 16224015.197 19479352.146 10 0 60053 81900.00000 0 1214973.376 14435204.679 21011094.257 10 0 60053 82800.00000 0 -779589.426 12673848.040 22135394.151 10 0 60053 83700.00000 0 -2988325.410 10997134.299 22830360.086 10 0 60053 84600.00000 0 -5363395.341 9455369.216 23082404.289 10 0 60053 85500.00000 0 -7848390.505 8089975.579 22886512.923 10 0 60054 0.00000 0 -10380453.401 6931880.844 22246352.389 10 0 60054 900.00000 0 -12892681.432 6000358.623 21174208.856 10 0 60054 1800.00000 0 -15316711.725 5302373.861 19690762.235 10 0 60054 2700.00000 0 -17585385.158 4832457.123 17824696.750 10 0 60054 3600.00000 0 -19635375.967 4573115.017 15612155.221 10 0 60054 4500.00000 0 -21409678.884 4495759.043 13096046.273 10 0 60054 5400.00000 0 -22859849.554 4562113.989 10325216.960 10 0 60054 6300.00000 0 -23947904.094 4726046.474 7353506.218 10 0 60054 7200.00000 0 -24647797.496 4935736.081 4238697.261 10 0 60054 8100.00000 0 -24946418.151 5136096.698 1041389.403 10 0 60054 9000.00000 0 -24844056.062 5271344.618 -2176188.212 10 0 60054 9900.00000 0 -24354324.625 5287603.411 -5351396.996 10 0 60054 10800.00000 0 -23503539.169 5135433.763 -8422418.522 10 0 60054 11700.00000 0 -22329578.627 4772179.540 -11329468.220 10 0 60054 12600.00000 0 -20880278.837 4164029.201 -14015968.283 10 0 60054 13500.00000 0 -19211425.915 3287703.848 -16429655.962 10 0 60054 14400.00000 0 -17384435.031 2131699.344 -18523604.953 10 0 60054 15300.00000 0 -15463813.106 697029.011 -20257139.573 10 0 60054 16200.00000 0 -13514512.748 -1002565.199 -21596623.967 10 0 60054 17100.00000 0 -11599288.891 -2940942.535 -22516111.304 10 0 60054 18000.00000 0 -9776169.041 -5080420.879 -22997840.955 10 0 60054 18900.00000 0 -8096142.719 -7373126.204 -23032574.768 10 0 60054 19800.00000 0 -6601165.985 -9762777.908 -22619766.776 10 0 60054 20700.00000 0 -5322563.368 -12186835.725 -21767563.903 10 0 60054 21600.00000 0 -4279892.530 -14578919.020 -20492638.393 10 0 60054 22500.00000 0 -3480317.415 -16871398.010 -18819855.830 10 0 60054 23400.00000 0 -2918514.319 -18998049.457 -16781785.613 10 0 60054 24300.00000 0 -2577112.953 -20896666.750 -14418063.664 10 0 60054 25200.00000 0 -2427652.284 -22511516.333 -11774619.814 10 0 60054 26100.00000 0 -2432009.481 -23795538.743 -8902784.889 10 0 60054 27000.00000 0 -2544240.602 -24712203.271 -5858294.761 10 0 60054 27900.00000 0 -2712754.544 -25236939.598 -2700210.537 10 0 60054 28800.00000 0 -2882727.936 -25358087.398 510224.229 10 0 60054 29700.00000 0 -2998658.696 -25077324.946 3710767.302 10 0 60054 30600.00000 0 -3006950.230 -24409559.452 6839379.751 10 0 60054 31500.00000 0 -2858417.147 -23382284.233 9835423.017 10 0 60054 32400.00000 0 -2510606.650 -22034429.917 12640828.194 10 0 60054 33300.00000 0 -1929837.613 -20414757.868 15201215.295 10 0 60054 34200.00000 0 -1092871.128 -18579862.872 17466941.258 10 0 60054 35100.00000 0 11858.293 -16591868.200 19394057.005 10 0 60054 36000.00000 0 1383503.473 -14515908.703 20945155.628 10 0 60054 36900.00000 0 3008589.433 -12417506.275 22090095.811 10 0 60054 37800.00000 0 4861332.937 -10359946.265 22806586.949 10 0 60054 38700.00000 0 6904485.121 -8401763.336 23080624.893 10 0 60054 39600.00000 0 9090663.991 -6594440.754 22906769.854 10 0 60054 40500.00000 0 11364123.216 -4980418.286 22288260.794 10 0 60054 41400.00000 0 13662885.437 -3591491.220 21236963.456 10 0 60054 42300.00000 0 15921152.844 -2447667.015 19773152.155 10 0 60054 43200.00000 0 18071895.908 -1556527.116 17925128.461 10 0 60054 44100.00000 0 20049513.217 -913120.626 15728682.986 10 0 60054 45000.00000 0 21792451.754 -500394.259 13226409.577 10 0 60054 45900.00000 0 23245678.077 -290140.490 10466884.246 10 0 60054 46800.00000 0 24362896.489 -244423.833 7503724.093 10 0 60054 47700.00000 0 25108420.468 -317424.745 4394544.205 10 0 60054 48600.00000 0 25458617.881 -457622.640 1199832.947 10 0 60054 49500.00000 0 25402868.329 -610224.790 -2018232.025 10 0 60054 50400.00000 0 24943991.576 -719737.078 -5197003.024 10 0 60054 51300.00000 0 24098128.509 -732566.320 -8274592.088 10 0 60054 52200.00000 0 22894079.414 -599542.375 -11191086.048 10 0 60054 53100.00000 0 21372127.615 -278251.643 -13889722.027 10 0 60054 54000.00000 0 19582398.377 264918.281 -16317999.487 10 0 60054 54900.00000 0 17582822.744 1053110.593 -18428706.423 10 0 60054 55800.00000 0 15436792.587 2097779.435 -20180839.314 10 0 60054 56700.00000 0 13210605.924 3397970.511 -21540398.895 10 0 60054 57600.00000 0 10970810.058 4940133.084 -22481046.603 10 0 60054 58500.00000 0 8781553.938 6698471.648 -22984609.485 10 0 60054 59400.00000 0 6702060.255 8635822.841 -23041424.568 10 0 60054 60300.00000 0 4784322.237 10705021.044 -22650516.835 10 0 60054 61200.00000 0 3071120.308 12850695.739 -21819608.245 10 0 60054 62100.00000 0 1594439.978 15011425.710 -20564958.352 10 0 60054 63000.00000 0 374355.330 17122160.427 -18911040.246 10 0 60054 63900.00000 0 -581577.158 19116807.866 -16890058.556 10 0 60054 64800.00000 0 -1278391.066 20930881.198 -14541319.117 10 0 60054 65700.00000 0 -1733247.714 22504094.396 -11910462.650 10 0 60054 66600.00000 0 -1974460.255 23782798.890 -9048577.360 10 0 60054 67500.00000 0 -2040046.753 24722160.111 -6011207.574 10 0 60054 68400.00000 0 -1975874.440 25287983.525 -2857277.564 10 0 60054 69300.00000 0 -1833474.273 25458114.394 352048.683 10 0 60054 70200.00000 0 -1667618.632 25223353.213 3554549.753 10 0 60054 71100.00000 0 -1533764.748 24587848.985 6688148.445 10 0 60054 72000.00000 0 -1485471.989 23568954.183 9692109.618 10 0 60054 72900.00000 0 -1571902.023 22196547.624 12508211.358 10 0 60054 73800.00000 0 -1835507.403 20511853.524 15081867.197 10 0 60054 74700.00000 0 -2310006.080 18565805.857 17363178.081 10 0 60054 75600.00000 0 -3018727.456 16417025.820 19307894.316 10 0 60054 76500.00000 0 -3973400.050 14129496.092 20878269.464 10 0 60054 77400.00000 0 -5173432.583 11770028.021 22043790.221 10 0 60054 78300.00000 0 -6605719.789 9405626.229 22781768.572 10 0 60054 79200.00000 0 -8244982.649 7100859.319 23077785.076 10 0 60054 80100.00000 0 -10054630.508 4915345.141 22925974.654 10 0 60054 81000.00000 0 -11988111.002 2901454.344 22329149.079 10 0 60054 81900.00000 0 -13990693.297 1102327.059 21298753.195 10 0 60054 82800.00000 0 -16001611.957 -449715.169 19854654.821 10 0 60054 83700.00000 0 -17956483.420 -1734296.376 18024771.354 10 0 60054 84600.00000 0 -19789895.208 -2743605.234 15844539.100 10 0 60054 85500.00000 0 -21438060.237 -3482480.384 13356234.511 10 0 60055 0.00000 0 -22841425.127 -3967958.560 10608159.751 10 0 60055 900.00000 0 -23947123.550 -4228304.913 7653706.172 10 0 60055 1800.00000 0 -24711169.119 -4301566.139 4550317.329 10 0 60055 2700.00000 0 -25100297.164 -4233708.876 1358366.859 10 0 60055 3600.00000 0 -25093374.902 -4076422.212 -1860022.859 10 0 60055 4500.00000 0 -24682320.346 -3884678.664 -5042198.780 10 0 60055 5400.00000 0 -23872490.238 -3714158.185 -8126207.021 10 0 60055 6300.00000 0 -22682520.027 -3618645.791 -11052009.240 10 0 60055 7200.00000 0 -21143622.364 -3647514.575 -13762660.666 10 0 60055 8100.00000 0 -19298373.668 -3843402.120 -16205425.818 10 0 60055 9000.00000 0 -17199040.089 -4240179.938 -18332809.430 10 0 60055 9900.00000 0 -14905513.648 -4861302.838 -20103482.075 10 0 60055 10800.00000 0 -12482945.628 -5718608.709 -21483082.435 10 0 60055 11700.00000 0 -9999176.754 -6811619.886 -22444880.924 10 0 60055 12600.00000 0 -7522071.829 -8127375.823 -22970292.326 10 0 60055 13500.00000 0 -5116870.098 -9640804.289 -23049228.253 10 0 60055 14400.00000 0 -2843661.351 -11315615.586 -22680283.466 10 0 60055 15300.00000 0 -755092.209 -13105682.332 -21870753.254 10 0 60055 16200.00000 0 1105603.073 -14956847.073 -20636482.344 10 0 60055 17100.00000 0 2706166.798 -16809082.223 -19001548.852 10 0 60055 18000.00000 0 4026413.551 -18598912.125 -16997789.878 10 0 60055 18900.00000 0 5058813.718 -20261996.242 -14664178.227 10 0 60055 19800.00000 0 5808542.469 -21735765.786 -12046062.462 10 0 60055 20700.00000 0 6292994.090 -22962003.855 -9194285.056 10 0 60055 21600.00000 0 6540783.874 -23889261.575 -6164195.712 10 0 60055 22500.00000 0 6590281.056 -24475009.516 -3014578.852 10 0 60055 23400.00000 0 6487735.774 -24687434.712 193483.985 10 0 60055 24300.00000 0 6285079.912 -24506808.365 3397794.930 10 0 60055 25200.00000 0 6037495.118 -23926367.223 6536241.030 10 0 60055 26100.00000 0 5800850.987 -22952671.858 9547992.864 10 0 60055 27000.00000 0 5629121.573 -21605426.827 12374677.563 10 0 60055 27900.00000 0 5571889.238 -19916770.037 14961503.969 10 0 60055 28800.00000 0 5672041.036 -17930060.612 17258318.532 10 0 60055 29700.00000 0 5963754.727 -15698215.241 19220572.130 10 0 60055 30600.00000 0 6470859.392 -13281661.530 20810179.666 10 0 60055 31500.00000 0 7205640.057 -10745992.673 21996256.370 10 0 60055 32400.00000 0 8168137.287 -8159419.876 22755717.012 10 0 60055 33300.00000 0 9345972.263 -5590127.322 23073726.734 10 0 60055 34200.00000 0 10714706.080 -3103638.450 22943994.740 10 0 60055 35100.00000 0 12238719.842 -760301.963 22368904.930 10 0 60055 36000.00000 0 13872580.535 1386998.892 21359480.324 10 0 60055 36900.00000 0 15562837.195 3294819.134 19935181.125 10 0 60055 37800.00000 0 17250173.808 4930725.338 18123539.247 10 0 60055 38700.00000 0 18871830.050 6274404.115 15959635.206 10 0 60055 39600.00000 0 20364189.238 7318259.641 13485426.397 10 0 60055 40500.00000 0 21665425.335 8067475.396 10748938.770 10 0 60055 41400.00000 0 22718097.672 8539537.664 7803336.878 10 0 60055 42300.00000 0 23471583.749 8763241.173 4705890.033 10 0 60055 43200.00000 0 23884246.757 8777219.242 1516854.732 10 0 60055 44100.00000 0 23925245.364 8628061.248 -1701704.458 10 0 60055 45000.00000 0 23575908.246 8368097.975 -4887131.743 10 0 60055 45900.00000 0 22830614.221 8052949.787 -7977409.905 10 0 60055 46800.00000 0 21697139.943 7738942.842 -10912377.911 10 0 60055 47700.00000 0 20196459.795 7480504.195 -13634911.419 10 0 60055 48600.00000 0 18362006.040 7327647.535 -16092042.106 10 0 60055 49500.00000 0 16238420.261 7323657.188 -18235993.322 10 0 60055 50400.00000 0 13879848.685 7503069.390 -20025111.387 10 0 60055 51300.00000 0 11347853.173 7890036.836 -21424674.385 10 0 60055 52200.00000 0 8709025.574 8497145.993 -22407562.986 10 0 60055 53100.00000 0 6032405.409 9324737.215 -22954780.798 10 0 60055 54000.00000 0 3386808.584 10360756.267 -23055814.916 10 0 60055 54900.00000 0 838178.175 11581143.369 -22708830.507 10 0 60055 55800.00000 0 -1552933.033 12950743.227 -21920696.529 10 0 60055 56700.00000 0 -3733644.493 14424697.662 -20706842.855 10 0 60055 57600.00000 0 -5660700.723 15950262.358 -19090952.204 10 0 60055 58500.00000 0 -7302015.299 17468971.493 -17104493.316 10 0 60055 59400.00000 0 -8637743.555 18919059.640 -14786104.735 10 0 60055 60300.00000 0 -9660841.209 20238039.617 -12180841.241 10 0 60055 61200.00000 0 -10377087.550 21365328.429 -9339297.623 10 0 60055 62100.00000 0 -10804574.125 22244811.517 -6316626.694 10 0 60055 63000.00000 0 -10972682.145 22827238.160 -3171470.529 10 0 60055 63900.00000 0 -10920592.968 23072347.754 35174.476 10 0 60055 64800.00000 0 -10695395.508 22950637.938 3241136.820 10 0 60055 65700.00000 0 -10349871.130 22444700.664 6384270.736 10 0 60055 66600.00000 0 -9940049.888 21550070.183 9403655.499 10 0 60055 67500.00000 0 -9522641.338 20275547.275 12240770.267 10 0 60055 68400.00000 0 -9152448.312 18642985.726 14840622.118 10 0 60055 69300.00000 0 -8879872.498 16686549.485 17152805.849 10 0 60055 70200.00000 0 -8748616.808 14451470.741 19132475.612 10 0 60055 71100.00000 0 -8793681.129 11992359.703 20741210.168 10 0 60055 72000.00000 0 -9039735.877 9371135.364 21947755.572 10 0 60055 72900.00000 0 -9499942.041 6654662.023 22728631.389 10 0 60055 73800.00000 0 -10175267.878 3912188.440 23068588.996 10 0 60055 74700.00000 0 -11054331.934 1212694.691 22960913.137 10 0 60055 75600.00000 0 -12113780.180 -1377744.371 22407560.609 10 0 60055 76500.00000 0 -13319182.916 -3798470.644 21419132.862 10 0 60055 77400.00000 0 -14626415.400 -5996525.756 20014682.152 10 0 60055 78300.00000 0 -15983465.753 -7928611.200 18221353.988 10 0 60055 79200.00000 0 -17332595.645 -9562644.373 16073871.586 10 0 60055 80100.00000 0 -18612763.963 -10878845.798 13613871.214 10 0 60055 81000.00000 0 -19762212.160 -11870312.230 10889100.296 10 0 60055 81900.00000 0 -20721102.594 -12543051.708 7952493.098 10 0 60055 82800.00000 0 -21434098.323 -12915479.280 4861141.610 10 0 60055 83700.00000 0 -21852774.771 -13017394.986 1675181.637 10 0 60055 84600.00000 0 -21937760.411 -12888487.756 -1543383.767 10 0 60055 85500.00000 0 -21660514.771 -12576429.259 -4731899.825 99